When you browse on this site, cookies collect data to enhance your experience and personalize the content and advertising you see.
Visit our Privacy Policy to learn more. By continuing to use the site, you agree to this use of cookies and data.
  • In Hungary
  • List of Countries
  • For 7 days
  • Water Temperature
  • Satellite Maps
  • Weather Map
  • News
  • Weather Widgets
  • user-avatar
    Login

    Hourly Weather Ibadan

    Today, 20 January, Sunday

    Time Temperature Precipitation Wind Pressure Humidity
    00:00 +28°C° 0 mm 1 mps 743 mmHg 79%
    01:00 +28°C° 0.3 mm 1 mps 743 mmHg 82%
    02:00 +27°C° 0.3 mm 1 mps 742 mmHg 85%
    03:00 +27°C° 0.3 mm 1 mps 742 mmHg 87%
    04:00 +27°C° 0.2 mm 1 mps 742 mmHg 89%
    05:00 +24°C° 0.2 mm 0 mps 742 mmHg 90%
    06:00 +24°C° 0 mm 0 mps 742 mmHg 91%
    07:00 +28°C° 0.6 mm 1 mps 743 mmHg 79%
    08:00 +30°C° 0.6 mm 1 mps 743 mmHg 67%
    09:00 +32°C° 0.6 mm 2 mps 744 mmHg 56%
    10:00 +35°C° 0 mm 1 mps 743 mmHg 47%
    11:00 +37°C° 0 mm 1 mps 743 mmHg 38%
    12:00 +41°C° 0 mm 1 mps 743 mmHg 30%
    13:00 +40°C° 0 mm 1 mps 742 mmHg 31%
    14:00 +37°C° 0 mm 1 mps 742 mmHg 33%
    15:00 +34°C° 0 mm 0 mps 741 mmHg 35%
    16:00 +35°C° 0 mm 1 mps 741 mmHg 37%
    17:00 +35°C° 0 mm 1 mps 741 mmHg 39%
    18:00 +34°C° 0 mm 1 mps 742 mmHg 41%
    19:00 +34°C° 0 mm 2 mps 742 mmHg 49%
    20:00 +31°C° 0 mm 2 mps 742 mmHg 58%
    21:00 +30°C° 0 mm 3 mps 743 mmHg 66%
    22:00 +29°C° 0 mm 2 mps 743 mmHg 69%
    23:00 +29°C° 0 mm 2 mps 743 mmHg 71%

    Tomorrow, 21 January, Monday

    Time Temperature Precipitation Wind Pressure Humidity
    00:00 +28°C° 0 mm 1 mps 743 mmHg 74%
    01:00 +28°C° 0 mm 1 mps 742 mmHg 77%
    02:00 +28°C° 0 mm 1 mps 742 mmHg 79%
    03:00 +27°C° 0 mm 1 mps 742 mmHg 81%
    04:00 +27°C° 0 mm 1 mps 742 mmHg 83%
    05:00 +27°C° 0 mm 1 mps 742 mmHg 85%
    06:00 +25°C° 0 mm 0 mps 743 mmHg 86%
    07:00 +29°C° 0 mm 1 mps 743 mmHg 76%
    08:00 +31°C° 0 mm 1 mps 744 mmHg 66%
    09:00 +34°C° 0 mm 2 mps 744 mmHg 57%
    10:00 +36°C° 0.1 mm 1 mps 744 mmHg 48%
    11:00 +40°C° 0.1 mm 1 mps 743 mmHg 39%
    12:00 +39°C° 0.1 mm 0 mps 743 mmHg 30%
    13:00 +41°C° 0 mm 1 mps 742 mmHg 32%
    14:00 +39°C° 0 mm 1 mps 741 mmHg 34%
    15:00 +38°C° 0 mm 2 mps 740 mmHg 36%
    16:00 +37°C° 0 mm 2 mps 741 mmHg 39%
    17:00 +36°C° 0 mm 2 mps 741 mmHg 42%
    18:00 +35°C° 0 mm 2 mps 741 mmHg 45%
    19:00 +34°C° 0.2 mm 2 mps 741 mmHg 54%
    20:00 +31°C° 0.2 mm 2 mps 742 mmHg 63%
    21:00 +29°C° 0.2 mm 3 mps 742 mmHg 73%
    22:00 +29°C° 0 mm 2 mps 742 mmHg 75%
    23:00 +29°C° 0 mm 2 mps 742 mmHg 78%

    Day after tomorrow, 22 January, Tuesday

    Time Temperature Precipitation Wind Pressure Humidity
    00:00 +28°C° 0 mm 1 mps 742 mmHg 81%
    01:00 +28°C° 0 mm 1 mps 742 mmHg 83%
    02:00 +28°C° 0 mm 1 mps 741 mmHg 84%
    03:00 +27°C° 0 mm 1 mps 741 mmHg 86%
    04:00 +27°C° 0 mm 1 mps 741 mmHg 87%
    05:00 +25°C° 0 mm 0 mps 742 mmHg 89%
    06:00 +25°C° 0 mm 0 mps 742 mmHg 90%
    07:00 +27°C° 0 mm 0 mps 743 mmHg 81%
    08:00 +30°C° 0 mm 1 mps 743 mmHg 72%
    09:00 +32°C° 0 mm 1 mps 744 mmHg 63%
    10:00 +34°C° 0 mm 1 mps 743 mmHg 54%
    11:00 +37°C° 0 mm 1 mps 743 mmHg 45%
    12:00 +40°C° 0 mm 1 mps 742 mmHg 35%
    13:00 +40°C° 0 mm 1 mps 741 mmHg 34%
    14:00 +40°C° 0 mm 1 mps 740 mmHg 32%
    15:00 +40°C° 0 mm 1 mps 739 mmHg 30%
    16:00 +39°C° 0 mm 1 mps 740 mmHg 33%
    17:00 +37°C° 0 mm 2 mps 740 mmHg 35%
    18:00 +36°C° 0 mm 2 mps 740 mmHg 38%
    19:00 +34°C° 0 mm 2 mps 741 mmHg 51%
    20:00 +32°C° 0 mm 2 mps 741 mmHg 63%
    21:00 +30°C° 0 mm 3 mps 742 mmHg 75%
    22:00 +29°C° 0.1 mm 2 mps 742 mmHg 77%
    23:00 +29°C° 0.1 mm 2 mps 741 mmHg 79%

    23 January, Wednesday

    Time Temperature Precipitation Wind Pressure Humidity
    00:00 +28°C° 0.1 mm 1 mps 741 mmHg 82%
    01:00 +28°C° 0 mm 1 mps 741 mmHg 83%
    02:00 +28°C° 0 mm 1 mps 741 mmHg 85%
    03:00 +28°C° 0 mm 2 mps 740 mmHg 86%
    04:00 +28°C° 0 mm 2 mps 741 mmHg 84%
    05:00 +28°C° 0 mm 2 mps 741 mmHg 82%
    06:00 +29°C° 0 mm 2 mps 742 mmHg 80%
    07:00 +29°C° 0.1 mm 1 mps 742 mmHg 76%
    08:00 +30°C° 0.1 mm 1 mps 743 mmHg 73%
    09:00 +31°C° 0.1 mm 1 mps 743 mmHg 69%
    10:00 +34°C° 0 mm 1 mps 743 mmHg 58%
    11:00 +36°C° 0 mm 1 mps 742 mmHg 46%
    12:00 +40°C° 0 mm 1 mps 742 mmHg 35%
    13:00 +40°C° 0 mm 1 mps 741 mmHg 36%
    14:00 +39°C° 0 mm 2 mps 740 mmHg 36%
    15:00 +38°C° 0 mm 2 mps 740 mmHg 37%
    16:00 +36°C° 0 mm 2 mps 740 mmHg 42%
    17:00 +35°C° 0 mm 3 mps 740 mmHg 48%
    18:00 +34°C° 0 mm 3 mps 740 mmHg 53%
    19:00 +33°C° 0 mm 3 mps 741 mmHg 59%
    20:00 +31°C° 0 mm 3 mps 741 mmHg 65%
    21:00 +30°C° 0 mm 3 mps 742 mmHg 71%
    22:00 +29°C° 0 mm 2 mps 742 mmHg 74%
    23:00 +29°C° 0 mm 2 mps 741 mmHg 77%

    24 January, Thursday

    Time Temperature Precipitation Wind Pressure Humidity
    00:00 +28°C° 0 mm 2 mps 741 mmHg 80%
    01:00 +28°C° 0.2 mm 2 mps 741 mmHg 82%
    02:00 +28°C° 0.2 mm 1 mps 740 mmHg 83%
    03:00 +28°C° 0.2 mm 1 mps 740 mmHg 84%
    04:00 +28°C° 0.2 mm 1 mps 740 mmHg 84%
    05:00 +28°C° 0.2 mm 1 mps 741 mmHg 83%
    06:00 +28°C° 0.2 mm 1 mps 741 mmHg 82%
    07:00 +29°C° 0.6 mm 1 mps 742 mmHg 75%
    08:00 +30°C° 0.6 mm 1 mps 742 mmHg 67%
    09:00 +32°C° 0.6 mm 1 mps 743 mmHg 59%
    10:00 +34°C° 0.2 mm 1 mps 742 mmHg 50%
    11:00 +37°C° 0.2 mm 1 mps 742 mmHg 41%
    12:00 +38°C° 0.2 mm 0 mps 741 mmHg 32%
    13:00 +40°C° 0 mm 1 mps 741 mmHg 33%
    14:00 +39°C° 0 mm 1 mps 740 mmHg 34%
    15:00 +38°C° 0 mm 2 mps 739 mmHg 35%
    16:00 +36°C° 0 mm 2 mps 739 mmHg 41%
    17:00 +35°C° 0 mm 3 mps 739 mmHg 48%
    18:00 +33°C° 0 mm 3 mps 740 mmHg 55%
    19:00 +31°C° 0 mm 3 mps 740 mmHg 60%
    20:00 +30°C° 0 mm 3 mps 741 mmHg 65%
    21:00 +29°C° 0 mm 2 mps 742 mmHg 70%
    22:00 +29°C° 0.5 mm 2 mps 742 mmHg 73%
    23:00 +28°C° 0.5 mm 2 mps 742 mmHg 76%

    25 January, Friday

    Time Temperature Precipitation Wind Pressure Humidity
    00:00 +28°C° 0.5 mm 1 mps 742 mmHg 79%
    01:00 +28°C° 0.7 mm 1 mps 741 mmHg 82%
    02:00 +27°C° 0.7 mm 1 mps 741 mmHg 84%
    03:00 +27°C° 0.7 mm 1 mps 741 mmHg 86%
    04:00 +27°C° 0 mm 1 mps 741 mmHg 87%
    05:00 +27°C° 0 mm 1 mps 741 mmHg 88%
    06:00 +26°C° 0 mm 1 mps 742 mmHg 89%
    07:00 +27°C° 0 mm 1 mps 742 mmHg 85%
    08:00 +28°C° 0 mm 1 mps 743 mmHg 82%
    09:00 +28°C° 0 mm 1 mps 743 mmHg 79%
    10:00 +29°C° 0 mm 1 mps 743 mmHg 78%
    11:00 +29°C° 0 mm 1 mps 742 mmHg 78%
    12:00 +29°C° 0 mm 1 mps 742 mmHg 77%
    13:00 +31°C° 0 mm 1 mps 741 mmHg 69%
    14:00 +32°C° 0 mm 2 mps 740 mmHg 60%
    15:00 +35°C° 0 mm 2 mps 739 mmHg 52%
    16:00 +34°C° 0 mm 2 mps 740 mmHg 54%
    17:00 +32°C° 0 mm 2 mps 740 mmHg 57%
    18:00 +31°C° 0 mm 2 mps 740 mmHg 59%
    19:00 +30°C° 0 mm 2 mps 741 mmHg 65%
    20:00 +29°C° 0 mm 2 mps 741 mmHg 70%
    21:00 +29°C° 0 mm 2 mps 742 mmHg 75%
    22:00 +28°C° 0 mm 2 mps 742 mmHg 79%
    23:00 +28°C° 0 mm 1 mps 742 mmHg 83%
    Show more